Welcome to the New NWS' Forecast!
Most changes are behind the scenes, but click here for differences you might notice.

Regional Weather Roundup (RWR)

Issued by Gray - Portland, ME (GYX)

                            
594 
ASUS41 KGYX 250310
RWRGYX
WEATHER ROUNDUP FOR MAINE AND NEW HAMPSHIRE
NATIONAL WEATHER SERVICE GRAY ME
1100 PM EDT WED MAY 24 2017

MEZ002-005-006-010-012-015-018-020-021-024-026-027-029-250400-
MAINE
  
CITY           SKY/WX    TMP DP  RH WIND       PRES   REMARKS
PORTLAND       CLOUDY    52  50  93 S3        29.89S                  
SANFORD        PTCLDY    47  46  97 CALM      29.90R                  
BAR HARBOR     CLEAR     50  47  89 SW5       29.91R                  
WISCASSET      CLOUDY    50  48  93 CALM      29.90S                  
ROCKLAND       PTCLDY    45  44  97 SW3       29.89S                  
FRYEBURG       CLOUDY    51  49  92 CALM      29.88S                  
LEWISTONAUBURN CLOUDY    52  50  93 SE3       29.88S                  
AUGUSTA        CLEAR     55  49  80 S3        29.88S                  
WATERVILLE     CLEAR     55  50  83 S3        29.85S                  
BANGOR         PTCLDY    53  49  86 S7        29.89R                  
GREENVILLE       N/A     56  48  74 SE3       29.87R                  
MILLINOCKET    PTCLDY    53  51  93 CALM      29.89R                  
HOULTON        CLEAR     57  52  83 E12       29.88R                  
PRESQUE ISLE   CLEAR     52  46  80 CALM      29.90R                  
FRENCHVILLE    CLEAR     52  44  74 N5        29.91R                  
CARIBOU        CLEAR     57  48  72 NE6       29.89R                  
$$

NHZ002-005-008-009-011-012-014-250400-
NEW HAMPSHIRE
  
CITY           SKY/WX    TMP DP  RH WIND       PRES   REMARKS
PORTSMOUTH     MOCLDY    52  49  92 CALM      29.87S                  
ROCHESTER      PTCLDY    53  48  83 CALM      29.88R                  
NASHUA         CLOUDY    55  50  83 CALM      29.88S                  
MANCHESTER     CLOUDY    58  48  69 SE3       29.86S                  
CONCORD        CLOUDY    57  51  80 E5        29.87S                  
LACONIA        CLOUDY    55  52  89 CALM      29.88R                  
BERLIN         CLEAR     50  47  89 CALM      29.87S FOG              
WHITEFIELD     PTCLDY    50  47  89 CALM      29.85F                  
JAFFREY        CLOUDY    53  52  96 CALM      29.88S                  
KEENE          CLOUDY    58  50  75 CALM      29.86S                  
LEBANON        CLOUDY    55  51  86 CALM      29.85R                  
MT WASHINGTON  MOCLDY    41  37  87 E10         N/A                   
$$

VTZ005-007-008-250400-
VERMONT
  
CITY           SKY/WX    TMP DP  RH WIND       PRES   REMARKS
ST JOHNSBURY     N/A     59  54  83 MISG      29.83S                  
MONTPELIER     PTCLDY    59  50  72 S6        29.88S                  
BURLINGTON     PTCLDY    65  54  67 E3        29.80R                  
$$

MAZ007-012-024-CTZ003-RIZ002-NYZ038-NYZ072-250400-
SOUTHERN NEW ENGLAND AND NY
  
CITY           SKY/WX    TMP DP  RH WIND       PRES   REMARKS
BOSTON         CLOUDY    54  51  90 NE3       29.87F                  
WORCESTER      CLOUDY    55  47  74 E7        29.87F                  
NANTUCKET      CLOUDY    52  48  86 NE10      29.83F                  
PROVIDENCE     MOCLDY    56  51  84 NE7       29.86F                  
HARTFORD       CLOUDY    61  49  64 SE7       29.85R                  
ALBANY         CLOUDY    66  48  52 SE8       29.80S                  
NEW YORK CITY  CLOUDY    60  51  72 E14       29.81S                  
$$

ANZ081-ANZ082-ANZ150-NHZ014-MEZ023>029-250400-
COASTAL MARINE OBSERVATIONS
  
STATION/POSITION TIME  TEMP    WIND        PRES    WAVE
                       AIR SEA DIR/SP/G            HT/PER
                 (UTC) (F)     (DEG/KT/KT) (MB)    (FT/S)
MOUNT DESERT ROC 0300   48                 1012.7R
ISLE OF SHOALS   0200   55     180/  9/  9 1011.6R
JEFFREYS LEDGE   0206      51                N/A     3/ 8
CASHES LEDGE BUO 0250   50 51              1012.3R   3/ 8
GEORGES BANK BUO 0150   50 45              1008.4    6/10
$$

.............KEY..............
   WCI - WIND CHILL
   TC  - TEMPERATURE IN CELSIUS
   VSB - VISIBILITY IN MILES
   HX  - HEAT INDEX
   FAIR- INDICATES FEW OR NO CLOUDS BELOW 12,000 FT, WITH NO 
         SIGNIFICANT WEATHER AND/OR OBSTRUCTIONS TO VISIBILITY.